Regional Weather Roundup
Issued by NWS Albany, NY

Home | Current Version | Previous Version | Graphics & Text | Print | Product List | Glossary Off
Versions: 1 2 3 4 5 6 7 8 9 10 11 12 13 14 15 16 17 18 19 20 21 22 23 24 25 26 27

000
ASUS41 KALY 020310
RWRALY

NEW YORK STATE HOURLY WEATHER ROUNDUP
NATIONAL WEATHER SERVICE ALBANY NY
1100 PM EDT SUN MAY 01 2016

NOTE: "FAIR" INDICATES FEW OR NO CLOUDS BELOW 12,000 FEET WITH NO
SIGNIFICANT WEATHER AND/OR NO OBSTRUCTIONS TO VISIBILITY.

NYZ032-033-038>043-046>054-057>066-NYZ062>081-082-084-020400-
EAST


CITY           SKY/WX    TMP DP  RH WIND       PRES   REMARKS
ALBANY         CLOUDY    45  38  76 S9        30.08F
GLENS FALLS    CLOUDY    45  39  79 S3        30.07F
POUGHKEEPSIE   CLOUDY    45  40  82 E5        30.10F
NEWBURGH       CLOUDY    43  43 100 SE8       30.10
MONTGOMERY     CLOUDY    45  42  89 SE7       30.08F
WHITE PLAINS   DRIZZLE   42  41  96 N6        30.08S FOG
ISLIP          DRIZZLE   45  42  89 E5        30.07F FOG
NEW YORK CITY  CLOUDY    46  43  89 NE8       30.09F
CENTRAL PARK   CLOUDY    45  42  89 VRB6      30.11F
$$

NYZ005>009-017-018-044>046-055-056-020400-
CENTRAL


CITY           SKY/WX    TMP DP  RH WIND       PRES   REMARKS
FULTON         LGT RAIN  49  46  90 E3        29.98F
SYRACUSE       DRIZZLE   46  46 100 NE6       29.98S
ROME           LGT RAIN  44  44 100 E7        30.02F FOG
ELMIRA         CLOUDY    51  45  79 S6        30.00R
BINGHAMTON     CLOUDY    45  44  97 S7        29.99F FOG
MONTICELLO     CLOUDY    43  43 100 SE7       30.07F
$$

NYZ026>034-041>043-087-020400-
NORTH


CITY           SKY/WX    TMP DP  RH WIND       PRES   REMARKS
WATERTOWN      CLOUDY    45  44  97 E7        30.01F FOG
FORT DRUM      NOT AVBL
MASSENA        CLOUDY    46  44  93 NE5       30.05F
SARANAC LAKE   LGT RAIN  40  38  93 CALM      30.00F FOG
PLATTSBURGH    CLOUDY    43  42  97 SE8       30.06F
$$

NYZ001>004-010>016-019>021-085-020400-
WEST


CITY           SKY/WX    TMP DP  RH WIND       PRES   REMARKS
NIAGARA FALLS  CLOUDY    46  42  86 NE7       30.03S
BUFFALO        CLOUDY    45  43  93 N6        30.02S
DUNKIRK        CLOUDY    45  44  97 NE7       30.02S FOG
JAMESTOWN      CLOUDY    45  43  93 N6        29.98S VSB 1/4
WELLSVILLE     CLOUDY    51  50  96 SW3       29.98S FOG
ROCHESTER      CLOUDY    44  44 100 N7        30.01S FOG
PENN YAN       CLOUDY    52  48  86 SW6       29.98S
$$

             KEY
       WCI = WIND CHILL INDEX
       VSB = VISIBILITY
       HX  = HEAT INDEX
$$




USA.gov is the U.S. government's official web portal to all federal, state and local government web resources and services.